Flag for U.S.A. Weather past 2 weeks in Brockton, Massachusetts, U.S.A.

Now
37 °F

Chilly.


Feels Like: 29 °F
Forecast: 34 / 49 °F
Wind: 12 mph from West

Location: East Milton

Current Time: Dec 26, 2014 at 9:29:17 PM

Latest Report: Dec 26, 2014 at 8:54 PM


Visibility: N/A

Pressure: 30.17 "Hg

Humidity: 70%

Dew point: 28 °F

Location of BrocktonLocation

Historic Weather in Brockton — Graph

°F

Brockton temperature yesterday

Maximum temperature yesterday: 60 °F (at 12:54 AM)
Minimum temperature yesterday: 40 °F (at 10:54 PM)
Average temperature yesterday: 51 °F

Past Weeks' High & Low Weather Summary

 TemperatureHumidityPressure
High61 °F (Dec 24, 10:54 PM)100% (Dec 16, 8:54 PM)30.40 "Hg (Dec 16, 8:54 PM)
Low24 °F (Dec 20, 1:54 AM)48% (Dec 25, 1:54 PM)29.50 "Hg (Dec 25, 5:54 AM)
Average36 °F84%30.00 "Hg
* Reported Dec 11 7:54 PM — Dec 26 7:54 PM, Brockton, Weather by CustomWeather, © 2014

Note: Actual official high and low records may vary slightly from our data, if they occured in-between our weather recording intervals... More about our weather records

Advertising

Brockton weather history for previous 24 hours

 ConditionsComfort  
Time TempWeatherWind HumidityBarometerVisibility
7:54 PM
Dec 26
38 °FChilly.10 mph68%30.18 "HgN/A
6:54 PM40 °FChilly.12 mph63%30.18 "HgN/A
5:54 PM41 °FQuite cool.13 mph62%30.16 "HgN/A
4:54 PM42 °FQuite cool.10 mph57%30.14 "HgN/A
3:54 PM44 °FQuite cool.10 mph55%30.14 "HgN/A
2:54 PM46 °FCool.12 mph54%30.13 "HgN/A
1:54 PM46 °FCool.14 mph51%30.12 "HgN/A
12:54 PM46 °FCool.13 mph54%30.13 "HgN/A
11:54 AM44 °FQuite cool.16 mph55%30.15 "HgN/A
10:54 AM44 °FQuite cool.14 mph58%30.16 "HgN/A
9:54 AM42 °FQuite cool.9 mph62%30.18 "HgN/A
8:54 AM39 °FChilly.17 mph67%30.16 "HgN/A
7:54 AM36 °FChilly.14 mph73%30.14 "HgN/A
6:54 AM35 °FChilly.13 mph72%30.12 "HgN/A
5:54 AM36 °FChilly.10 mph70%30.09 "HgN/A
4:54 AM36 °FChilly.12 mph70%30.09 "HgN/A
3:54 AM37 °FChilly.14 mph70%30.07 "HgN/A
2:54 AM38 °FChilly.12 mph68%30.04 "HgN/A
1:54 AM39 °FChilly.16 mph65%30.04 "HgN/A
12:54 AM40 °FChilly.18 mph63%30.01 "HgN/A
11:54 PM
Dec 25
40 °FChilly.23 mph65%29.98 "HgN/A
10:54 PM40 °FChilly.14 mph65%29.96 "HgN/A
9:54 PM41 °FQuite cool.18 mph62%29.95 "HgN/A
Weather by CustomWeather, © 2014

See weather overviewHow to use our weather pages